#timestamp,LO_Frequency,Hit,StdDev 
1584809235.2,286047036.8,P
1584809255.0,286047036.9,P
1584809255.9,286047036.9,P
1584809275.8,286047036.5,Y
1584809295.6,286047002.5,P
1584809315.5,286046999.9,N
1584809335.3,286047000.1,N
1584809355.1,286047000.2,N
1584809375.9,286047002.6,N
1584809395.7,286047001.4,N
1584809415.6,286047002.5,N
1584809435.4,286047001.9,N
1584809455.2,286047002.8,N
1584809475.1,286047002.3,N
1584809476.0,286047002.3,N
1584809495.8,286047004.0,N
1584809515.7,286047001.6,N
1584809535.5,286046999.7,N
1584809555.3,286047000.2,N
1584809575.2,286046999.9,N
1584809595.0,286047000.1,N
1584809595.9,286047000.1,N
1584809615.7,286047001.8,N
1584809635.6,286047001.4,N
1584809655.4,286047003.7,N
1584809675.3,286047003.8,N
1584809695.1,286047003.9,N
1584809696.0,286047003.9,N
1584809715.8,286047001.4,N
1584809735.7,286047001.4,N
1584809755.5,286047003.9,N
1584809775.4,286047003.5,N
1584809795.2,286047003.6,N
1584809815.0,286047003.1,N
1584809815.9,286047003.1,N
1584809835.8,286047003.2,N
1584809855.6,286047003.2,N
1584809875.5,286047005.9,Y
1584809895.3,286047001.4,P
1584809915.1,286047003.9,P
1584809935.9,286047004.4,P
1584809955.7,286047003.6,N
1584809975.5,286047004.4,Y
1584809995.4,286046996.7,P
